• In Belarus
  • List of Countries
  • For 7 days
  • Water Temperature
  • Weather Map
  • Weather Widgets
  • user-avatar
    Login

    Hourly Weather Midlothian

    Today, 20 September, Friday

    Time Temperature Precipitation Wind Pressure Humidity
    00:00 +10°C° 0 mm 2 mps 747 mmHg 91%
    01:00 +10°C° 0 mm 2 mps 747 mmHg 91%
    02:00 +10°C° 0 mm 2 mps 746 mmHg 91%
    03:00 +9°C° 0 mm 2 mps 746 mmHg 90%
    04:00 +9°C° 0 mm 2 mps 746 mmHg 90%
    05:00 +10°C° 0 mm 1 mps 745 mmHg 90%
    06:00 +10°C° 0 mm 1 mps 745 mmHg 90%
    07:00 +12°C° 0 mm 1 mps 745 mmHg 86%
    08:00 +13°C° 0 mm 1 mps 745 mmHg 81%
    09:00 +15°C° 0 mm 1 mps 745 mmHg 77%
    10:00 +18°C° 0 mm 1 mps 745 mmHg 72%
    11:00 +19°C° 0 mm 1 mps 744 mmHg 68%
    12:00 +20°C° 0 mm 1 mps 744 mmHg 63%
    13:00 +21°C° 0 mm 1 mps 744 mmHg 64%
    14:00 +20°C° 0 mm 2 mps 743 mmHg 65%
    15:00 +20°C° 0 mm 2 mps 743 mmHg 66%
    16:00 +19°C° 0 mm 2 mps 742 mmHg 73%
    17:00 +17°C° 0 mm 2 mps 742 mmHg 80%
    18:00 +16°C° 0 mm 2 mps 741 mmHg 86%
    19:00 +15°C° 0 mm 2 mps 741 mmHg 87%
    20:00 +14°C° 0 mm 2 mps 741 mmHg 89%
    21:00 +13°C° 0 mm 2 mps 741 mmHg 90%
    22:00 +13°C° 0 mm 2 mps 740 mmHg 90%
    23:00 +12°C° 0 mm 2 mps 740 mmHg 90%

    Tomorrow, 21 September, Saturday

    Time Temperature Precipitation Wind Pressure Humidity
    00:00 +12°C° 0 mm 2 mps 740 mmHg 90%
    01:00 +10°C° 0 mm 2 mps 739 mmHg 90%
    02:00 +10°C° 0 mm 2 mps 739 mmHg 90%
    03:00 +10°C° 0 mm 3 mps 738 mmHg 89%
    04:00 +9°C° 0 mm 3 mps 738 mmHg 89%
    05:00 +9°C° 0 mm 3 mps 737 mmHg 88%
    06:00 +9°C° 0 mm 3 mps 737 mmHg 87%
    07:00 +10°C° 0 mm 3 mps 737 mmHg 82%
    08:00 +12°C° 0 mm 4 mps 737 mmHg 77%
    09:00 +14°C° 0 mm 4 mps 736 mmHg 72%
    10:00 +15°C° 0 mm 5 mps 736 mmHg 68%
    11:00 +16°C° 0 mm 5 mps 736 mmHg 64%
    12:00 +17°C° 0 mm 6 mps 736 mmHg 60%
    13:00 +19°C° 0 mm 6 mps 735 mmHg 61%
    14:00 +19°C° 0 mm 6 mps 735 mmHg 63%
    15:00 +19°C° 0 mm 6 mps 734 mmHg 65%
    16:00 +16°C° 0 mm 5 mps 734 mmHg 70%
    17:00 +15°C° 0 mm 4 mps 733 mmHg 76%
    18:00 +13°C° 0 mm 4 mps 733 mmHg 82%
    19:00 +12°C° 0 mm 3 mps 733 mmHg 84%
    20:00 +11°C° 0 mm 3 mps 733 mmHg 86%
    21:00 +12°C° 0 mm 2 mps 733 mmHg 88%
    22:00 +10°C° 0 mm 2 mps 732 mmHg 88%
    23:00 +10°C° 0 mm 2 mps 732 mmHg 88%

    Day after tomorrow, 22 September, Sunday

    Time Temperature Precipitation Wind Pressure Humidity
    00:00 +11°C° 0 mm 1 mps 732 mmHg 88%
    01:00 +11°C° 0 mm 1 mps 731 mmHg 89%
    02:00 +11°C° 0 mm 1 mps 731 mmHg 89%
    03:00 +11°C° 0 mm 1 mps 731 mmHg 90%
    04:00 +11°C° 0 mm 1 mps 730 mmHg 89%
    05:00 +11°C° 0 mm 1 mps 730 mmHg 89%
    06:00 +11°C° 0 mm 1 mps 730 mmHg 89%
    07:00 +12°C° 0 mm 2 mps 730 mmHg 86%
    08:00 +14°C° 0 mm 2 mps 730 mmHg 83%
    09:00 +15°C° 0 mm 2 mps 730 mmHg 81%
    10:00 +16°C° 0 mm 3 mps 730 mmHg 79%
    11:00 +18°C° 0 mm 4 mps 729 mmHg 77%
    12:00 +19°C° 0 mm 4 mps 729 mmHg 75%
    13:00 +18°C° 0 mm 4 mps 729 mmHg 78%
    14:00 +18°C° 0 mm 4 mps 728 mmHg 81%
    15:00 +17°C° 0 mm 4 mps 728 mmHg 84%
    16:00 +15°C° 0 mm 4 mps 728 mmHg 87%
    17:00 +14°C° 0 mm 3 mps 728 mmHg 91%
    18:00 +13°C° 0 mm 3 mps 728 mmHg 94%
    19:00 +14°C° 0.5 mm 2 mps 728 mmHg 95%
    20:00 +14°C° 0.5 mm 2 mps 728 mmHg 96%
    21:00 +14°C° 0.5 mm 2 mps 729 mmHg 97%
    22:00 +14°C° 0.1 mm 1 mps 729 mmHg 96%
    23:00 +13°C° 0.1 mm 1 mps 729 mmHg 96%

    23 September, Monday

    Time Temperature Precipitation Wind Pressure Humidity
    00:00 +13°C° 0.1 mm 1 mps 729 mmHg 96%
    01:00 +13°C° 0 mm 1 mps 729 mmHg 96%
    02:00 +13°C° 0 mm 1 mps 729 mmHg 95%
    03:00 +13°C° 0 mm 1 mps 730 mmHg 95%
    04:00 +12°C° 0 mm 1 mps 730 mmHg 95%
    05:00 +12°C° 0 mm 1 mps 730 mmHg 94%
    06:00 +12°C° 0 mm 1 mps 730 mmHg 94%
    07:00 +13°C° 0 mm 1 mps 730 mmHg 91%
    08:00 +14°C° 0 mm 1 mps 730 mmHg 88%
    09:00 +15°C° 0 mm 1 mps 730 mmHg 85%
    10:00 +16°C° 0 mm 1 mps 731 mmHg 81%
    11:00 +17°C° 0 mm 2 mps 731 mmHg 78%
    12:00 +17°C° 0 mm 2 mps 731 mmHg 75%
    13:00 +17°C° 0 mm 2 mps 731 mmHg 74%
    14:00 +17°C° 0 mm 2 mps 731 mmHg 74%
    15:00 +18°C° 0 mm 2 mps 731 mmHg 73%
    16:00 +16°C° 0.1 mm 2 mps 730 mmHg 79%
    17:00 +15°C° 0.1 mm 2 mps 730 mmHg 84%
    18:00 +14°C° 0.1 mm 2 mps 730 mmHg 90%
    19:00 +13°C° 0 mm 2 mps 730 mmHg 91%
    20:00 +13°C° 0 mm 2 mps 730 mmHg 91%
    21:00 +12°C° 0 mm 1 mps 730 mmHg 92%
    22:00 +12°C° 0 mm 2 mps 730 mmHg 91%
    23:00 +13°C° 0 mm 2 mps 729 mmHg 90%

    24 September, Tuesday

    Time Temperature Precipitation Wind Pressure Humidity
    00:00 +13°C° 0 mm 2 mps 729 mmHg 88%
    01:00 +13°C° 0.2 mm 2 mps 729 mmHg 89%
    02:00 +13°C° 0.2 mm 2 mps 729 mmHg 91%
    03:00 +13°C° 0.2 mm 2 mps 729 mmHg 92%
    04:00 +12°C° 0 mm 1 mps 728 mmHg 92%
    05:00 +12°C° 0 mm 1 mps 728 mmHg 93%
    06:00 +11°C° 0 mm 1 mps 728 mmHg 94%
    07:00 +12°C° 0 mm 1 mps 728 mmHg 92%
    08:00 +14°C° 0 mm 1 mps 728 mmHg 90%
    09:00 +15°C° 0 mm 1 mps 729 mmHg 88%
    10:00 +16°C° 0 mm 2 mps 728 mmHg 85%
    11:00 +17°C° 0 mm 2 mps 728 mmHg 82%
    12:00 +18°C° 0 mm 3 mps 728 mmHg 79%
    13:00 +18°C° 0.1 mm 4 mps 727 mmHg 81%
    14:00 +17°C° 0.1 mm 4 mps 727 mmHg 82%
    15:00 +16°C° 0.1 mm 5 mps 726 mmHg 84%
    16:00 +15°C° 0 mm 5 mps 726 mmHg 87%
    17:00 +15°C° 0 mm 5 mps 725 mmHg 90%
    18:00 +14°C° 0 mm 5 mps 725 mmHg 93%
    19:00 +13°C° 0.3 mm 5 mps 724 mmHg 94%
    20:00 +13°C° 0.3 mm 6 mps 724 mmHg 95%
    21:00 +13°C° 0.3 mm 6 mps 724 mmHg 96%
    22:00 +13°C° 0.1 mm 6 mps 724 mmHg 96%
    23:00 +12°C° 0.1 mm 7 mps 724 mmHg 96%

    25 September, Wednesday

    Time Temperature Precipitation Wind Pressure Humidity
    00:00 +12°C° 0.1 mm 7 mps 723 mmHg 95%
    01:00 +11°C° 0 mm 6 mps 723 mmHg 95%
    02:00 +12°C° 0 mm 5 mps 723 mmHg 95%
    03:00 +11°C° 0 mm 4 mps 723 mmHg 94%
    04:00 +11°C° 0 mm 4 mps 724 mmHg 95%
    05:00 +10°C° 0 mm 3 mps 724 mmHg 95%
    06:00 +10°C° 0 mm 2 mps 724 mmHg 95%
    07:00 +11°C° 0 mm 3 mps 725 mmHg 92%
    08:00 +12°C° 0 mm 3 mps 725 mmHg 89%
    09:00 +13°C° 0 mm 3 mps 725 mmHg 85%
    10:00 +14°C° 0 mm 3 mps 726 mmHg 81%
    11:00 +15°C° 0 mm 4 mps 726 mmHg 77%
    12:00 +17°C° 0 mm 4 mps 726 mmHg 73%
    13:00 +17°C° 0 mm 4 mps 726 mmHg 75%
    14:00 +15°C° 0 mm 4 mps 726 mmHg 77%
    15:00 +15°C° 0 mm 4 mps 726 mmHg 80%
    16:00 +14°C° 0 mm 4 mps 726 mmHg 85%
    17:00 +13°C° 0 mm 4 mps 726 mmHg 90%
    18:00 +12°C° 0 mm 3 mps 726 mmHg 95%
    19:00 +12°C° 0 mm 3 mps 727 mmHg 95%
    20:00 +12°C° 0 mm 2 mps 727 mmHg 96%
    21:00 +12°C° 0 mm 2 mps 727 mmHg 97%
    22:00 +12°C° 0 mm 2 mps 727 mmHg 97%
    23:00 +12°C° 0 mm 2 mps 727 mmHg 97%
    Show more